[[{"header":{"parameterUnit":"m.s-1","parameterCategory":1,"la1":30.2991,"la2":30.254,"lo1":-89.0895,"lo2":-89.0444,"dy":0.0017,"dx":0.0017,"nx":28,"ny":28,"refTime":"2025-05-27T21:00:00:Z","depth":0,"parameterNumber":2,"parameterNumberName":"U-component_of_WINDS"},"data":[0,0,0,0,0,0,0,0,0,0,0,0,0,0,0,0,0,0,0,0,0,0,0,0,0,0,0,0,0,0,0,0,0,0,0,0,0,0,0,0,0,0,0,0,0,0,0,0,0,0,0,0,0,0,0,0,0,0,1.5981,1.5983,0,1.618,1.6182,1.6185,1.6182,1.618,1.6177,1.6174,1.6387,1.6395,1.6403,0,0,0,0,0,0,0,0,0,0,0,0,0,1.5607,1.5614,1.5981,1.5983,1.5986,1.618,1.6182,1.6185,1.6183,1.618,1.6176,1.6173,1.6384,1.6394,1.6404,0,0,0,0,0,0,0,0,0,0,0,0,0,1.5785,1.5616,1.598,1.6008,1.6012,1.6179,1.6183,1.6186,1.6183,1.6179,1.6175,1.6172,1.6381,1.6393,1.6405,1.6561,0,0,1.6442,1.6448,0,0,0,0,0,0,0,0,1.5775,1.5798,1.6001,1.6006,1.6011,1.6152,1.6129,1.6312,1.6184,1.6119,1.6174,1.617,1.6313,1.633,1.6377,1.6571,1.658,1.6444,1.6451,1.6456,1.646,0,0,0,0,0,0,0,1.5762,1.579,1.606,1.6004,1.601,1.6013,1.6034,1.6164,1.6236,1.6124,1.6124,1.6148,1.6315,1.6365,1.6382,1.6583,1.6443,1.6454,1.6462,1.6466,1.6919,1.6923,0,0,0,0,0,0,1.5743,1.578,1.6053,1.6066,1.588,1.6023,1.6046,1.6111,1.6234,1.6249,1.6151,1.6147,1.6346,1.6367,1.6389,1.6582,1.6456,1.6468,1.6475,1.6914,1.692,1.6925,0,0,0,0,0,0,1.5735,1.5767,1.6045,1.5923,1.5958,1.6034,1.6107,1.6117,1.6167,1.6254,1.6268,1.6188,1.6344,1.6372,1.6518,1.6589,1.6473,1.6484,1.6909,1.6916,1.6922,1.6968,0,0,0,0,0,0,1.5724,1.5765,1.5822,1.5924,1.5965,1.6169,1.6111,1.6124,1.6187,1.6184,1.6293,1.6308,1.6343,1.65,1.653,1.6604,1.6494,1.6903,1.6912,1.692,1.696,1.6975,1.6988,0,0,0,0,0,1.5711,1.5828,1.5825,1.5858,1.6038,1.6172,1.6196,1.6232,1.6193,1.6253,1.631,1.6304,1.6576,1.6515,1.6549,1.6628,1.6898,1.6909,1.6919,1.6954,1.6972,1.6988,0,0,0,0,0,0,1.5735,1.5842,1.584,1.5993,1.6073,1.6172,1.6249,1.625,1.6345,1.6338,1.6381,1.6406,1.6553,1.6605,1.6535,1.6787,1.6733,1.6751,1.6747,1.6766,1.6779,1.6765,1.6504,0,0,0,0,0,1.5758,1.5855,1.5944,1.6071,1.6111,1.6173,1.6233,1.6253,1.634,1.6375,1.6442,1.6528,1.6634,1.6702,1.6804,1.6967,1.6993,1.7038,1.7052,1.7063,1.7079,1.7173,1.7195,1.6959,1.6959,1.6959,0,0,1.5807,1.5877,1.5936,1.6078,1.6142,1.6246,1.6202,1.6312,1.6391,1.6392,1.6535,1.6587,1.6687,1.6843,1.6915,1.6891,1.715,1.7077,1.7085,1.7095,1.7186,1.7208,1.7228,1.6967,1.6965,1.6964,0,0,1.5949,1.601,1.6124,1.6189,1.6287,1.6328,1.6355,1.6454,1.6488,1.6631,1.6635,1.673,1.691,1.6981,1.7041,1.7212,1.7212,1.7244,1.7319,1.741,1.7428,1.7445,1.7509,1.7531,1.7259,1.7259,1.726,0,1.5998,1.6151,1.6183,1.6294,1.6358,1.6361,1.6479,1.6542,1.6669,1.6715,1.6685,1.6911,1.6979,1.7153,1.7195,1.7242,1.7278,1.7233,1.7422,1.744,1.7456,1.7518,1.7541,1.7263,1.7262,1.7262,1.7262,0,1.6208,1.6314,1.6395,1.6515,1.6588,1.6702,1.6754,1.6824,1.6839,1.6883,1.7031,1.7112,1.7231,1.7273,1.7289,1.7452,1.7434,1.7413,1.736,1.7481,1.754,1.7564,1.7268,1.7267,1.7266,1.7265,0,0,1.6372,1.6509,1.6538,1.6594,1.6703,1.6787,1.6903,1.7017,1.7078,1.7166,1.7266,1.7419,1.74,1.7468,1.7492,1.7572,1.7706,1.7542,1.7545,1.7572,1.7895,1.7912,1.7938,1.7706,1.771,1.7714,1.7887,0,1.6528,1.673,1.6763,1.6942,1.7042,1.7048,1.7149,1.7229,1.7274,1.7369,1.742,1.7528,1.7494,1.7536,1.7614,1.7673,1.7772,1.7661,1.7804,1.7808,1.7781,1.7968,1.7987,1.8146,1.791,1.7914,1.7917,0,1.6737,1.6828,1.7017,1.7114,1.7157,1.7247,1.7356,1.7445,1.7537,1.7564,1.7641,1.7656,1.778,1.772,1.7894,1.7817,1.7878,1.7916,1.7923,1.794,1.7872,1.7994,1.8197,1.8223,1.7953,1.795,1.7947,0,1.6841,1.7012,1.7147,1.7194,1.731,1.7374,1.7426,1.7513,1.7581,1.7676,1.7721,1.7831,1.7892,1.7979,1.8024,1.7976,1.8197,1.8139,1.8227,1.8226,1.8275,1.8272,1.8494,1.8309,1.8308,1.8308,1.8308,0,1.7013,1.7129,1.7196,1.7279,1.741,1.7448,1.7578,1.7629,1.7707,1.7804,1.7815,1.7906,1.796,1.806,1.8097,1.8237,1.8264,1.8293,1.8302,1.8293,1.829,1.8336,1.8327,1.8314,1.8313,1.8312,1.8311,0,1.7153,1.7201,1.735,1.7447,1.7474,1.7567,1.7652,1.7736,1.778,1.7902,1.7933,1.8005,1.8123,1.8177,1.8323,1.8348,1.851,1.8509,1.8478,1.8482,1.8567,1.856,1.8829,1.8868,1.8654,1.8656,1.8657,0,1.7261,1.735,1.7456,1.752,1.7573,1.7676,1.7745,1.7786,1.7858,1.797,1.8041,1.8159,1.8256,1.8445,1.8513,1.8626,1.8631,1.8717,1.8648,1.8638,1.8636,1.8631,1.8642,1.8731,1.8733,1.8735,1.8736,0,1.7449,1.7468,1.7565,1.7671,1.7751,1.7837,1.7922,1.7974,1.803,1.811,1.823,1.8305,1.8454,1.8573,1.869,1.8748,1.8754,1.8757,1.8784,1.8778,1.8757,1.8773,1.8516,1.8751,1.875,1.8749,1.8748,1.8747,1.7578,1.7659,1.7746,1.7854,1.7922,1.8001,1.8084,1.8139,1.8238,1.8361,1.8381,1.8509,1.8602,1.876,1.8822,1.8926,1.8906,1.8944,1.8954,1.8963,1.897,1.8738,1.8947,1.8947,1.8947,1.8946,1.8946,0,1.7769,1.7826,1.7924,1.8041,1.8127,1.8121,1.8215,1.8288,1.84,1.8485,1.8579,1.8719,1.8834,1.891,1.9028,1.9097,1.9103,1.9127,1.9124,1.9138,1.898,1.8946,1.9121,1.9121,1.9121,1.912,1.912,1.912,1.7879,1.8015,1.8046,1.8218,1.8274,1.8398,1.8453,1.8527,1.8595,1.8749,1.8844,1.8892,1.8975,1.9099,1.9206,1.9226,1.927,1.9296,1.9316,1.9167,1.9149,1.9131,1.91,1.9304,1.9305,1.9466,1.9467,1.9468]},{"header":{"parameterUnit":"m.s-1","parameterCategory":1,"la1":30.2991,"la2":30.254,"lo1":-89.0895,"lo2":-89.0444,"dy":0.0017,"dx":0.0017,"nx":28,"ny":28,"refTime":"2025-05-27T21:00:00:Z","depth":0,"parameterNumber":3,"parameterNumberName":"V-component_of_WINDS"},"data":[0,0,0,0,0,0,0,0,0,0,0,0,0,0,0,0,0,0,0,0,0,0,0,0,0,0,0,0,0,0,0,0,0,0,0,0,0,0,0,0,0,0,0,0,0,0,0,0,0,0,0,0,0,0,0,0,0,0,0.5667,0.5668,0,0.5787,0.5789,0.579,0.5742,0.5739,0.5737,0.5734,0.5862,0.5868,0.5874,0,0,0,0,0,0,0,0,0,0,0,0,0,0.5399,0.5405,0.5667,0.5668,0.567,0.5787,0.5789,0.5791,0.5743,0.5739,0.5736,0.5733,0.586,0.5867,0.5874,0,0,0,0,0,0,0,0,0,0,0,0,0,0.5518,0.5406,0.5666,0.566,0.5661,0.5787,0.5789,0.5791,0.5744,0.5739,0.5735,0.5731,0.5858,0.5866,0.5875,0.6017,0,0,0.5903,0.5907,0,0,0,0,0,0,0,0,0.5511,0.5527,0.5659,0.5661,0.5662,0.5745,0.5742,0.5867,0.5745,0.5712,0.5734,0.5729,0.5827,0.5838,0.587,0.6023,0.6028,0.5904,0.5909,0.5913,0.5916,0,0,0,0,0,0,0,0.5503,0.5522,0.5715,0.5661,0.5663,0.5653,0.5665,0.5765,0.5792,0.5715,0.5711,0.5726,0.5827,0.5862,0.5873,0.603,0.5904,0.5912,0.5917,0.5921,0.6307,0.6312,0,0,0,0,0,0,0.5494,0.5515,0.5711,0.5718,0.5574,0.5661,0.5674,0.5723,0.5791,0.5797,0.573,0.5723,0.5848,0.5863,0.5877,0.605,0.5913,0.5922,0.5927,0.6303,0.6308,0.6314,0,0,0,0,0,0,0.5488,0.5512,0.5706,0.5616,0.564,0.567,0.5725,0.5728,0.5762,0.5802,0.5807,0.576,0.5846,0.5865,0.5983,0.6054,0.5926,0.5934,0.6297,0.6304,0.6311,0.6396,0,0,0,0,0,0,0.5481,0.551,0.5563,0.5617,0.5645,0.5809,0.5729,0.5733,0.5778,0.5771,0.5832,0.5838,0.5844,0.597,0.5992,0.6064,0.5941,0.6291,0.63,0.6309,0.6387,0.6405,0.6421,0,0,0,0,0,0.5471,0.5582,0.5566,0.559,0.5712,0.5813,0.5828,0.5831,0.5784,0.5838,0.5864,0.5836,0.6041,0.5982,0.6007,0.6083,0.6286,0.6297,0.6308,0.6379,0.6401,0.642,0,0,0,0,0,0,0.5537,0.5589,0.5572,0.5703,0.5754,0.5804,0.5873,0.5854,0.592,0.5911,0.5912,0.5927,0.6049,0.6077,0.601,0.6225,0.6157,0.6173,0.6203,0.6224,0.6241,0.6234,0.5949,0,0,0,0,0,0.5566,0.5642,0.5684,0.5797,0.5822,0.5844,0.5888,0.5885,0.5938,0.596,0.5994,0.6047,0.6124,0.6175,0.6247,0.6389,0.6404,0.6454,0.647,0.6484,0.65,0.658,0.6604,0.6349,0.6349,0.6349,0,0,0.5629,0.5667,0.5715,0.5811,0.5849,0.5931,0.5862,0.595,0.6011,0.5973,0.6088,0.6114,0.6174,0.6306,0.6365,0.6333,0.6573,0.6498,0.6508,0.6517,0.6594,0.6618,0.6639,0.6357,0.6355,0.6354,0,0,0.5785,0.5819,0.5918,0.5958,0.6017,0.603,0.6054,0.6108,0.6124,0.6238,0.6212,0.6285,0.6416,0.6461,0.6501,0.6673,0.6652,0.6696,0.6787,0.6865,0.6885,0.6903,0.6969,0.6992,0.6711,0.6711,0.6711,0,0.5856,0.5975,0.5972,0.6063,0.6107,0.6074,0.6176,0.6215,0.6296,0.6328,0.6289,0.6455,0.6492,0.6636,0.6678,0.6709,0.6739,0.6692,0.6882,0.69,0.6917,0.698,0.7004,0.6716,0.6716,0.6715,0.6715,0,0.6062,0.6145,0.6218,0.6296,0.6348,0.6443,0.6456,0.6509,0.6502,0.6519,0.6638,0.6681,0.6763,0.6796,0.6789,0.6939,0.6918,0.688,0.6814,0.6946,0.7006,0.703,0.6724,0.6722,0.6721,0.6719,0,0,0.6266,0.634,0.6367,0.6404,0.6466,0.6531,0.6625,0.6705,0.6752,0.6807,0.689,0.7001,0.6967,0.7013,0.701,0.7078,0.7217,0.7033,0.7035,0.707,0.739,0.7421,0.7449,0.7201,0.7206,0.7209,0.7386,0,0.6431,0.6597,0.6596,0.675,0.6829,0.6798,0.6881,0.693,0.6948,0.7019,0.7039,0.712,0.7067,0.7095,0.716,0.7187,0.7282,0.7173,0.7281,0.7285,0.7273,0.7479,0.7512,0.7677,0.7409,0.7413,0.7415,0,0.6646,0.6709,0.6871,0.6923,0.6956,0.7031,0.7104,0.7171,0.7225,0.7234,0.7284,0.7272,0.7371,0.7296,0.7434,0.736,0.7404,0.7423,0.7429,0.7444,0.7362,0.7504,0.7729,0.7756,0.7451,0.7448,0.7446,0,0.6785,0.6909,0.7023,0.7054,0.7117,0.717,0.7199,0.7249,0.7297,0.7361,0.7393,0.7467,0.751,0.7569,0.7578,0.7522,0.7717,0.7643,0.7731,0.7731,0.7778,0.7776,0.8019,0.7797,0.7797,0.7796,0.7796,0,0.6972,0.7074,0.7087,0.7158,0.7271,0.7269,0.7381,0.7405,0.745,0.7526,0.7503,0.7575,0.758,0.7654,0.7661,0.7777,0.7795,0.7807,0.7809,0.7813,0.7812,0.7845,0.7836,0.7803,0.7801,0.78,0.7799,0,0.7149,0.7161,0.7284,0.7332,0.7347,0.7429,0.7472,0.754,0.7555,0.7652,0.7674,0.7699,0.7786,0.7799,0.7901,0.7905,0.8045,0.8032,0.8028,0.8028,0.8116,0.811,0.8394,0.8433,0.8181,0.8183,0.8185,0,0.7271,0.7348,0.7405,0.7454,0.7485,0.7564,0.7613,0.7613,0.7665,0.7733,0.7794,0.7878,0.7946,0.8086,0.8115,0.8193,0.8185,0.8279,0.8197,0.8199,0.8193,0.819,0.82,0.8297,0.8299,0.8301,0.8303,0,0.7487,0.7489,0.7559,0.7633,0.7692,0.7749,0.7804,0.7846,0.7853,0.7913,0.8001,0.8054,0.8157,0.8243,0.832,0.8351,0.8331,0.8328,0.8353,0.8361,0.8357,0.8365,0.8076,0.8323,0.8321,0.8319,0.8318,0.8318,0.7643,0.7712,0.7763,0.7843,0.7883,0.7935,0.8003,0.8026,0.8098,0.8183,0.8178,0.8276,0.8329,0.8431,0.8467,0.8545,0.8515,0.855,0.856,0.8571,0.8582,0.8339,0.8558,0.8558,0.8557,0.8557,0.8556,0,0.7862,0.7893,0.7966,0.8044,0.8107,0.8078,0.8137,0.8193,0.8279,0.833,0.8397,0.8499,0.8581,0.8615,0.8696,0.8752,0.8745,0.8774,0.8773,0.8781,0.8602,0.8574,0.8779,0.8779,0.8779,0.8779,0.8779,0.8779,0.7984,0.81,0.8108,0.8244,0.8274,0.8369,0.8406,0.8455,0.8495,0.861,0.8678,0.8698,0.8744,0.8828,0.8903,0.891,0.8944,0.8978,0.8983,0.8816,0.8793,0.8772,0.8747,0.8984,0.8984,0.9157,0.9158,0.9159]}]]